WXM80 ListenWXM80 Stop

You find our weather info also at:

UK Metoffice

WeatherCloud

Weather Underground

Northeastern Weather Network

AWEKAS

Citizen Weather Observer Program (CWOP)

HAMweather, WeatherForYou, PWS Weather


Weather Underground History page Text

Daily Summary for September 12, 2017 Units:  English    Metric   Both
« Previous Day
Next Day »
Daily Weekly Monthly Yearly Custom
  High: Low: Average:
Temperature: 80.3 °F 55.6 °F 67.9 °F
Dew Point: 66.1 °F 53.3 °F 59.6 °F
Humidity: 96 % 49 % 77 %
Wind Speed: 5.0 mph 0.0 mph 0.6 mph
Wind Gust: 8.1 mph - -
Wind:- - SSW
Pressure: 30.06 in 29.85 in -
Precipitation: 0.00 in    
Historical Graphs
 
 
Tabular Data for September 12, 2017
Time Temperature Dew Point Pressure Wind Wind Speed Wind Gust Humidity Rainfall Rate (Hourly)
00:04 63.5 °F 57.2 °F 30.06 in West 1.6 mph 3.5 mph 80 % 0.00 in
00:09 63.6 °F 57.3 °F 30.06 in Calm     80 % 0.00 in
00:14 63.7 °F 57.4 °F 30.06 in WNW 1.8 mph 3.5 mph 80 % 0.00 in
00:19 63.9 °F 57.6 °F 30.05 in WNW 0.3 mph 1.2 mph 80 % 0.00 in
00:24 64.0 °F 57.7 °F 30.05 in WNW 1.2 mph 2.3 mph 80 % 0.00 in
00:30 64.0 °F 57.7 °F 30.05 in WNW 0.5 mph 2.0 mph 80 % 0.00 in
00:35 64.1 °F 57.5 °F 30.05 in WNW 0.2 mph 3.5 mph 79 % 0.00 in
00:40 64.1 °F 57.5 °F 30.05 in WNW 0.4 mph 2.3 mph 79 % 0.00 in
00:45 64.1 °F 57.5 °F 30.05 in WNW 0.2 mph 2.3 mph 79 % 0.00 in
00:50 64.1 °F 57.5 °F 30.05 in WNW 0.2 mph 1.2 mph 79 % 0.00 in
00:55 64.0 °F 57.4 °F 30.05 in Calm     79 % 0.00 in
01:00 64.0 °F 57.0 °F 30.05 in Calm     78 % 0.00 in
01:05 63.9 °F 56.9 °F 30.05 in Calm   1.2 mph 78 % 0.00 in
01:10 63.8 °F 56.8 °F 30.05 in Calm   1.2 mph 78 % 0.00 in
01:15 63.7 °F 57.1 °F 30.04 in WNW 0.1 mph 2.3 mph 79 % 0.00 in
01:20 63.6 °F 57.0 °F 30.05 in Calm     79 % 0.00 in
01:25 63.5 °F 56.9 °F 30.04 in Calm     79 % 0.00 in
01:30 63.3 °F 56.7 °F 30.04 in Calm     79 % 0.00 in
01:35 63.1 °F 56.5 °F 30.04 in WNW 0.2 mph 1.2 mph 79 % 0.00 in
01:40 62.9 °F 56.6 °F 30.04 in WNW 0.2 mph 1.2 mph 80 % 0.00 in
01:45 62.7 °F 56.4 °F 30.04 in Calm   1.2 mph 80 % 0.00 in
01:50 62.5 °F 56.2 °F 30.03 in Calm     80 % 0.00 in
01:55 62.4 °F 56.1 °F 30.04 in Calm   1.0 mph 80 % 0.00 in
02:00 62.3 °F 56.4 °F 30.04 in WNW 0.1 mph 1.2 mph 81 % 0.00 in
02:05 62.1 °F 56.2 °F 30.04 in Calm   1.2 mph 81 % 0.00 in
02:10 62.0 °F 56.1 °F 30.03 in Calm   1.2 mph 81 % 0.00 in
02:15 61.9 °F 56.0 °F 30.03 in Calm     81 % 0.00 in
02:20 61.7 °F 55.8 °F 30.03 in Calm     81 % 0.00 in
02:25 61.6 °F 56.0 °F 30.03 in Calm     82 % 0.00 in
02:30 61.4 °F 55.9 °F 30.03 in Calm     82 % 0.00 in
02:35 61.2 °F 55.7 °F 30.02 in Calm     82 % 0.00 in
02:40 61.0 °F 55.5 °F 30.02 in Calm     82 % 0.00 in
02:45 60.8 °F 55.3 °F 30.02 in Calm     82 % 0.00 in
02:50 60.5 °F 55.3 °F 30.02 in WNW 0.3 mph 1.2 mph 83 % 0.00 in
02:55 60.3 °F 55.1 °F 30.02 in Calm     83 % 0.00 in
03:00 60.0 °F 54.8 °F 30.02 in Calm     83 % 0.00 in
03:05 59.8 °F 55.0 °F 30.02 in Calm     84 % 0.00 in
03:10 59.6 °F 54.8 °F 30.02 in Calm     84 % 0.00 in
03:15 59.3 °F 54.5 °F 30.02 in Calm     84 % 0.00 in
03:20 59.1 °F 54.6 °F 30.02 in Calm     85 % 0.00 in
03:25 58.9 °F 54.4 °F 30.01 in Calm     85 % 0.00 in
03:30 58.7 °F 54.5 °F 30.02 in Calm   1.2 mph 86 % 0.00 in
03:35 58.5 °F 54.3 °F 30.02 in Calm     86 % 0.00 in
03:40 58.4 °F 54.2 °F 30.01 in Calm     86 % 0.00 in
03:46 58.2 °F 54.3 °F 30.01 in WNW 0.6 mph 1.0 mph 87 % 0.00 in
03:51 58.0 °F 54.2 °F 30.01 in Calm     87 % 0.00 in
03:56 57.9 °F 54.1 °F 30.01 in Calm   1.0 mph 87 % 0.00 in
04:01 57.8 °F 54.3 °F 30.01 in Calm     88 % 0.00 in
04:06 57.7 °F 54.2 °F 30.01 in Calm   1.0 mph 88 % 0.00 in
04:11 57.6 °F 54.4 °F 30.01 in Calm   1.0 mph 89 % 0.00 in
04:16 57.5 °F 54.3 °F 30.01 in Calm   1.0 mph 89 % 0.00 in
04:21 57.3 °F 54.1 °F 30.01 in Calm     89 % 0.00 in
04:26 57.3 °F 54.1 °F 30.01 in Calm     89 % 0.00 in
04:31 57.2 °F 54.0 °F 30.01 in Calm     89 % 0.00 in
04:36 57.1 °F 54.2 °F 30.01 in Calm   1.0 mph 90 % 0.00 in
04:41 57.0 °F 54.1 °F 30.01 in Calm   1.0 mph 90 % 0.00 in
04:46 56.9 °F 54.0 °F 30.01 in Calm   1.0 mph 90 % 0.00 in
04:51 56.9 °F 54.0 °F 30.00 in Calm   1.0 mph 90 % 0.00 in
04:56 56.8 °F 54.2 °F 30.00 in Calm   1.0 mph 91 % 0.00 in
05:01 56.8 °F 54.2 °F 30.00 in NW 0.3 mph 1.2 mph 91 % 0.00 in
05:06 56.8 °F 54.2 °F 30.00 in Calm     91 % 0.00 in
05:11 56.8 °F 54.5 °F 30.00 in Calm     92 % 0.00 in
05:16 56.7 °F 54.1 °F 30.00 in NW 0.1 mph 1.2 mph 91 % 0.00 in
05:21 56.6 °F 54.3 °F 30.00 in Calm     92 % 0.00 in
05:31 56.5 °F 54.2 °F 30.00 in Calm     92 % 0.00 in
05:36 56.4 °F 54.1 °F 29.99 in Calm   1.2 mph 92 % 0.00 in
05:41 56.4 °F 54.1 °F 29.99 in Calm     92 % 0.00 in
05:46 56.2 °F 53.9 °F 30.00 in Calm     92 % 0.00 in
05:51 56.2 °F 53.9 °F 29.99 in NW 0.3 mph 1.2 mph 92 % 0.00 in
05:56 56.1 °F 53.8 °F 30.00 in Calm     92 % 0.00 in
05:57 56.1 °F 53.8 °F 29.99 in Calm     92 % 0.00 in
06:02 56.0 °F 53.7 °F 29.99 in Calm     92 % 0.00 in
06:07 55.9 °F 53.6 °F 30.00 in Calm     92 % 0.00 in
06:12 55.9 °F 53.6 °F 30.00 in Calm     92 % 0.00 in
06:17 55.8 °F 53.5 °F 29.99 in Calm     92 % 0.00 in
06:22 55.8 °F 53.5 °F 30.00 in Calm     92 % 0.00 in
06:27 55.7 °F 53.4 °F 30.00 in Calm     92 % 0.00 in
06:32 55.7 °F 53.4 °F 30.00 in Calm     92 % 0.00 in
06:37 55.6 °F 53.3 °F 30.01 in Calm     92 % 0.00 in
06:42 55.6 °F 53.3 °F 30.01 in Calm     92 % 0.00 in
06:48 55.6 °F 53.6 °F 30.01 in Calm     93 % 0.00 in
06:53 55.6 °F 53.6 °F 30.01 in Calm   1.2 mph 93 % 0.00 in
06:58 55.7 °F 53.7 °F 30.01 in Calm     93 % 0.00 in
07:03 55.8 °F 53.8 °F 30.00 in Calm   1.2 mph 93 % 0.00 in
07:08 55.9 °F 54.2 °F 30.00 in Calm     94 % 0.00 in
07:13 56.0 °F 54.3 °F 30.01 in Calm     94 % 0.00 in
07:18 56.1 °F 54.4 °F 30.00 in Calm     94 % 0.00 in
07:23 56.2 °F 54.8 °F 30.01 in Calm     95 % 0.00 in
07:28 56.4 °F 55.0 °F 30.01 in Calm     95 % 0.00 in
07:33 56.5 °F 55.1 °F 30.00 in Calm     95 % 0.00 in
07:38 56.7 °F 55.3 °F 30.00 in Calm     95 % 0.00 in
07:43 56.8 °F 55.4 °F 30.00 in Calm   1.2 mph 95 % 0.00 in
07:48 57.0 °F 55.6 °F 30.00 in Calm     95 % 0.00 in
07:53 57.3 °F 55.9 °F 29.99 in Calm     95 % 0.00 in
07:58 57.5 °F 56.1 °F 30.00 in Calm     95 % 0.00 in
08:03 57.8 °F 56.7 °F 30.00 in Calm     96 % 0.00 in
08:08 58.1 °F 57.0 °F 29.99 in Calm     96 % 0.00 in
08:13 58.4 °F 57.3 °F 29.99 in NNW 0.5 mph 2.3 mph 96 % 0.00 in
08:18 58.7 °F 57.6 °F 29.98 in North 0.8 mph 3.5 mph 96 % 0.00 in
08:24 59.1 °F 58.0 °F 29.99 in North 0.4 mph 1.2 mph 96 % 0.00 in
08:29 59.4 °F 58.3 °F 29.98 in Calm   1.2 mph 96 % 0.00 in
08:34 59.6 °F 58.5 °F 29.98 in North 0.6 mph 2.3 mph 96 % 0.00 in
08:39 59.9 °F 58.8 °F 29.98 in North 0.2 mph 1.2 mph 96 % 0.00 in
08:44 60.2 °F 59.1 °F 29.98 in Calm     96 % 0.00 in
08:49 60.4 °F 59.0 °F 29.98 in North 0.8 mph 2.3 mph 95 % 0.00 in
08:54 60.8 °F 59.4 °F 29.98 in Calm     95 % 0.00 in
08:59 61.2 °F 59.5 °F 29.98 in NE 0.5 mph 2.0 mph 94 % 0.00 in
09:04 61.6 °F 59.9 °F 29.98 in NE 0.4 mph 2.3 mph 94 % 0.00 in
09:09 62.0 °F 60.0 °F 29.99 in Calm     93 % 0.00 in
09:14 62.3 °F 59.9 °F 29.99 in NE 0.6 mph 2.3 mph 92 % 0.00 in
09:19 62.7 °F 60.0 °F 29.99 in NE 1.0 mph 3.5 mph 91 % 0.00 in
09:24 63.2 °F 59.9 °F 29.99 in North 1.7 mph 3.5 mph 89 % 0.00 in
09:29 63.6 °F 60.0 °F 29.99 in North 1.7 mph 3.5 mph 88 % 0.00 in
09:34 64.0 °F 60.1 °F 29.99 in North 1.8 mph 3.0 mph 87 % 0.00 in
09:39 64.3 °F 60.0 °F 29.99 in NNE 0.7 mph 2.3 mph 86 % 0.00 in
09:45 64.7 °F 60.4 °F 29.99 in North 1.8 mph 3.5 mph 86 % 0.00 in
09:50 65.1 °F 60.1 °F 29.99 in NE 0.7 mph 3.5 mph 84 % 0.00 in
09:55 65.6 °F 60.3 °F 29.99 in NE 1.8 mph 3.5 mph 83 % 0.00 in
10:00 66.0 °F 60.3 °F 29.99 in NE 0.1 mph 1.2 mph 82 % 0.00 in
10:05 66.4 °F 60.7 °F 29.99 in NE 0.4 mph 1.0 mph 82 % 0.00 in
10:10 66.8 °F 60.4 °F 29.99 in NE 0.3 mph 3.5 mph 80 % 0.00 in
10:15 67.1 °F 60.4 °F 29.99 in Calm     79 % 0.00 in
10:20 67.3 °F 60.6 °F 29.99 in NNE 1.0 mph 2.3 mph 79 % 0.00 in
10:25 67.5 °F 60.8 °F 29.99 in Calm     79 % 0.00 in
10:30 67.7 °F 60.6 °F 29.99 in NNE 0.3 mph 2.3 mph 78 % 0.00 in
10:35 68.0 °F 60.5 °F 29.99 in Calm     77 % 0.00 in
10:40 68.2 °F 60.7 °F 29.99 in NNE 1.4 mph 3.5 mph 77 % 0.00 in
10:45 68.6 °F 61.5 °F 29.99 in NNE 0.1 mph 1.2 mph 78 % 0.00 in
10:50 68.9 °F 61.4 °F 29.99 in North 1.6 mph 3.5 mph 77 % 0.00 in
10:55 69.3 °F 61.8 °F 29.98 in NW 1.3 mph 2.0 mph 77 % 0.00 in
11:00 69.5 °F 61.2 °F 29.98 in Calm   1.2 mph 75 % 0.00 in
11:06 69.8 °F 61.1 °F 29.98 in Calm   2.0 mph 74 % 0.00 in
11:11 70.2 °F 61.9 °F 29.99 in NNW 0.6 mph 2.3 mph 75 % 0.00 in
11:16 70.8 °F 62.5 °F 29.99 in North 1.0 mph 4.0 mph 75 % 0.00 in
11:21 71.5 °F 62.4 °F 29.99 in NNE 1.0 mph 3.0 mph 73 % 0.00 in
11:26 72.2 °F 61.9 °F 29.98 in North 1.0 mph 5.0 mph 70 % 0.00 in
11:31 73.0 °F 63.1 °F 29.98 in North 1.0 mph 2.0 mph 71 % 0.00 in
11:36 73.9 °F 63.0 °F 29.98 in North 1.0 mph 4.0 mph 69 % 0.00 in
11:41 74.6 °F 62.9 °F 29.98 in North 0.3 mph 1.2 mph 67 % 0.00 in
11:46 75.0 °F 62.8 °F 29.98 in Calm   3.0 mph 66 % 0.00 in
11:51 75.3 °F 60.9 °F 29.98 in NNW 0.6 mph 2.3 mph 61 % 0.00 in
11:56 75.7 °F 60.8 °F 29.98 in Calm   1.2 mph 60 % 0.00 in
12:01 76.0 °F 60.6 °F 29.98 in NNW 0.3 mph 2.3 mph 59 % 0.00 in
12:06 76.6 °F 61.7 °F 29.98 in NNE 1.0 mph 2.3 mph 60 % 0.00 in
12:11 77.0 °F 62.5 °F 29.97 in Calm   1.2 mph 61 % 0.00 in
12:16 77.5 °F 62.5 °F 29.97 in NNE 1.8 mph 3.5 mph 60 % 0.00 in
12:21 78.1 °F 63.6 °F 29.96 in North 2.6 mph 4.6 mph 61 % 0.00 in
12:26 78.6 °F 62.1 °F 29.97 in NE 1.2 mph 3.5 mph 57 % 0.00 in
12:31 78.8 °F 60.7 °F 29.96 in North 0.2 mph 2.3 mph 54 % 0.00 in
12:36 79.4 °F 64.3 °F 29.96 in NNE 2.1 mph 3.5 mph 60 % 0.00 in
12:41 79.8 °F 61.7 °F 29.96 in North 3.5 mph 4.0 mph 54 % 0.00 in
12:46 80.0 °F 61.9 °F 29.95 in North 3.6 mph 4.6 mph 54 % 0.00 in
12:52 79.9 °F 59.6 °F 29.95 in NNE 1.6 mph 3.5 mph 50 % 0.00 in
12:57 79.8 °F 60.6 °F 29.95 in NNE 0.2 mph 2.3 mph 52 % 0.00 in
13:02 79.8 °F 59.5 °F 29.95 in NNW 0.2 mph 1.2 mph 50 % 0.00 in
13:07 79.9 °F 60.2 °F 29.95 in North 1.2 mph 2.3 mph 51 % 0.00 in
13:12 79.9 °F 59.0 °F 29.95 in NNW 0.9 mph 2.3 mph 49 % 0.00 in
13:17 79.8 °F 58.9 °F 29.94 in North 0.6 mph 2.3 mph 49 % 0.00 in
13:22 79.8 °F 61.1 °F 29.95 in North 2.4 mph 3.5 mph 53 % 0.00 in
13:27 79.6 °F 60.4 °F 29.94 in NNW 0.8 mph 3.5 mph 52 % 0.00 in
13:32 79.5 °F 62.9 °F 29.94 in North 0.7 mph 4.0 mph 57 % 0.00 in
13:37 79.2 °F 62.1 °F 29.94 in North 2.2 mph 3.5 mph 56 % 0.00 in
13:42 79.2 °F 62.7 °F 29.94 in North 0.5 mph 2.3 mph 57 % 0.00 in
13:47 79.3 °F 62.7 °F 29.94 in North 2.2 mph 4.0 mph 57 % 0.00 in
13:52 79.2 °F 63.1 °F 29.94 in NNE 2.0 mph 3.5 mph 58 % 0.00 in
13:57 79.1 °F 63.1 °F 29.94 in Calm   2.3 mph 58 % 0.00 in
14:02 79.3 °F 62.2 °F 29.93 in WNW 2.3 mph 3.5 mph 56 % 0.00 in
14:07 79.4 °F 63.8 °F 29.93 in NW 1.1 mph 4.0 mph 59 % 0.00 in
14:12 79.5 °F 64.4 °F 29.93 in North 2.4 mph 4.6 mph 60 % 0.00 in
14:17 79.4 °F 65.2 °F 29.92 in NNW 3.1 mph 4.6 mph 62 % 0.00 in
14:22 79.2 °F 65.1 °F 29.92 in NNW 1.9 mph 3.5 mph 62 % 0.00 in
14:27 78.9 °F 65.7 °F 29.92 in North 1.1 mph 3.0 mph 64 % 0.00 in
14:32 78.9 °F 65.7 °F 29.92 in North 2.2 mph 4.0 mph 64 % 0.00 in
14:37 78.9 °F 66.1 °F 29.92 in North 0.7 mph 3.0 mph 65 % 0.00 in
14:42 79.0 °F 65.8 °F 29.92 in NE 1.6 mph 3.5 mph 64 % 0.00 in
14:47 79.1 °F 65.9 °F 29.91 in NNE 1.8 mph 3.5 mph 64 % 0.00 in
14:48 79.1 °F 65.9 °F 29.91 in NNE 1.0 mph 3.5 mph 64 % 0.00 in
14:53 79.1 °F 65.4 °F 29.91 in NW 1.1 mph 3.5 mph 63 % 0.00 in
14:58 79.2 °F 66.0 °F 29.91 in NW 0.1 mph 2.3 mph 64 % 0.00 in
15:03 79.4 °F 65.2 °F 29.91 in WNW 2.5 mph 4.0 mph 62 % 0.00 in
15:08 79.4 °F 65.2 °F 29.91 in WNW 0.4 mph 2.3 mph 62 % 0.00 in
15:13 79.6 °F 65.0 °F 29.91 in West 1.5 mph 3.5 mph 61 % 0.00 in
15:18 79.7 °F 64.6 °F 29.91 in WNW 1.6 mph 3.5 mph 60 % 0.00 in
15:23 79.8 °F 64.2 °F 29.91 in WNW 2.1 mph 4.0 mph 59 % 0.00 in
15:28 79.9 °F 64.8 °F 29.91 in WSW 3.4 mph 5.8 mph 60 % 0.00 in
15:33 80.0 °F 63.9 °F 29.90 in WSW 1.6 mph 4.6 mph 58 % 0.00 in
15:38 80.1 °F 64.5 °F 29.90 in West 1.9 mph 3.5 mph 59 % 0.00 in
15:43 80.1 °F 64.0 °F 29.90 in West 2.1 mph 4.0 mph 58 % 0.00 in
15:48 80.2 °F 63.6 °F 29.90 in WSW 5.0 mph 8.1 mph 57 % 0.00 in
15:53 80.3 °F 64.2 °F 29.90 in SW 1.7 mph 5.8 mph 58 % 0.00 in
15:58 80.3 °F 63.2 °F 29.90 in SW 3.2 mph 7.0 mph 56 % 0.00 in
16:03 80.3 °F 63.2 °F 29.90 in WSW 1.2 mph 3.5 mph 56 % 0.00 in
16:08 80.3 °F 62.1 °F 29.90 in West 3.2 mph 3.5 mph 54 % 0.00 in
16:13 80.3 °F 61.6 °F 29.89 in WSW 2.4 mph 6.9 mph 53 % 0.00 in
16:18 80.3 °F 61.1 °F 29.89 in WSW 2.4 mph 5.0 mph 52 % 0.00 in
16:23 80.3 °F 61.1 °F 29.89 in SW 2.5 mph 6.9 mph 52 % 0.00 in
16:28 80.3 °F 60.5 °F 29.89 in SW 1.9 mph 5.8 mph 51 % 0.00 in
16:33 80.3 °F 61.1 °F 29.89 in SW 1.6 mph 6.0 mph 52 % 0.00 in
16:38 80.2 °F 61.5 °F 29.89 in West 3.8 mph 7.0 mph 53 % 0.00 in
16:43 80.2 °F 61.0 °F 29.89 in SW 0.6 mph 2.3 mph 52 % 0.00 in
16:48 80.1 °F 61.4 °F 29.88 in WSW 0.4 mph 3.5 mph 53 % 0.00 in
16:53 80.0 °F 60.8 °F 29.88 in WSW 2.0 mph 4.6 mph 52 % 0.00 in
16:59 79.9 °F 61.2 °F 29.88 in WSW 1.7 mph 3.5 mph 53 % 0.00 in
17:04 79.8 °F 62.2 °F 29.88 in Calm   1.2 mph 55 % 0.00 in
17:09 79.7 °F 61.1 °F 29.88 in West 2.9 mph 4.6 mph 53 % 0.00 in
17:14 79.7 °F 62.1 °F 29.88 in West 0.1 mph 1.2 mph 55 % 0.00 in
17:19 79.5 °F 62.4 °F 29.88 in West 0.3 mph 1.2 mph 56 % 0.00 in
17:24 79.4 °F 62.8 °F 29.88 in West 0.5 mph 2.3 mph 57 % 0.00 in
17:29 79.2 °F 62.1 °F 29.88 in West 1.0 mph 3.5 mph 56 % 0.00 in
17:34 79.1 °F 62.1 °F 29.87 in Calm     56 % 0.00 in
17:39 78.9 °F 62.4 °F 29.87 in Calm     57 % 0.00 in
17:44 78.7 °F 62.2 °F 29.88 in WNW 0.1 mph 1.2 mph 57 % 0.00 in
17:49 78.5 °F 62.5 °F 29.88 in Calm   1.2 mph 58 % 0.00 in
17:54 78.3 °F 62.8 °F 29.88 in Calm     59 % 0.00 in
17:59 78.1 °F 63.1 °F 29.87 in Calm     60 % 0.00 in
18:04 77.9 °F 64.3 °F 29.87 in Calm     63 % 0.00 in
18:09 77.6 °F 64.0 °F 29.87 in Calm     63 % 0.00 in
18:14 77.3 °F 63.7 °F 29.87 in Calm     63 % 0.00 in
18:19 77.1 °F 64.4 °F 29.87 in Calm     65 % 0.00 in
18:24 76.7 °F 64.9 °F 29.87 in Calm     67 % 0.00 in
18:29 76.4 °F 65.1 °F 29.87 in Calm     68 % 0.00 in
18:35 76.0 °F 64.7 °F 29.87 in Calm     68 % 0.00 in
18:40 75.5 °F 64.2 °F 29.87 in Calm     68 % 0.00 in
18:45 75.0 °F 64.1 °F 29.86 in Calm     69 % 0.00 in
18:50 74.7 °F 63.9 °F 29.86 in Calm     69 % 0.00 in
18:55 74.2 °F 63.8 °F 29.86 in Calm     70 % 0.00 in
19:00 73.9 °F 63.9 °F 29.86 in Calm     71 % 0.00 in
19:05 73.5 °F 63.9 °F 29.86 in Calm     72 % 0.00 in
19:10 73.1 °F 63.5 °F 29.86 in Calm     72 % 0.00 in
19:15 72.7 °F 63.5 °F 29.86 in Calm     73 % 0.00 in
19:20 72.3 °F 63.5 °F 29.86 in Calm     74 % 0.00 in
19:25 71.8 °F 63.1 °F 29.86 in Calm     74 % 0.00 in
19:31 71.5 °F 62.8 °F 29.86 in Calm     74 % 0.00 in
19:36 71.2 °F 62.5 °F 29.86 in Calm     74 % 0.00 in
19:41 70.8 °F 62.5 °F 29.86 in Calm     75 % 0.00 in
19:46 70.5 °F 62.2 °F 29.86 in Calm     75 % 0.00 in
19:51 70.2 °F 62.3 °F 29.86 in Calm     76 % 0.00 in
19:53 70.0 °F 62.1 °F 29.86 in Calm     76 % 0.00 in
19:58 69.7 °F 61.8 °F 29.86 in Calm     76 % 0.00 in
20:03 69.4 °F 62.2 °F 29.86 in Calm     78 % 0.00 in
20:08 69.0 °F 61.9 °F 29.86 in Calm     78 % 0.00 in
20:14 68.8 °F 61.7 °F 29.86 in Calm     78 % 0.00 in
20:19 68.5 °F 61.4 °F 29.86 in Calm     78 % 0.00 in
20:24 68.3 °F 61.2 °F 29.86 in Calm     78 % 0.00 in
20:29 68.0 °F 60.9 °F 29.87 in WNW 0.1 mph 1.2 mph 78 % 0.00 in
20:34 67.8 °F 61.0 °F 29.86 in Calm     79 % 0.00 in
20:39 67.6 °F 60.9 °F 29.87 in WNW 0.1 mph 2.0 mph 79 % 0.00 in
20:44 67.3 °F 60.9 °F 29.86 in Calm   1.0 mph 80 % 0.00 in
20:54 67.0 °F 61.0 °F 29.86 in Calm   1.2 mph 81 % 0.00 in
20:59 66.9 °F 60.9 °F 29.86 in Calm     81 % 0.00 in
21:04 66.8 °F 60.8 °F 29.86 in Calm     81 % 0.00 in
21:09 66.8 °F 60.8 °F 29.86 in SE 0.4 mph 2.3 mph 81 % 0.00 in
21:14 66.7 °F 60.7 °F 29.87 in Calm   1.0 mph 81 % 0.00 in
21:19 66.7 °F 60.7 °F 29.86 in WNW 0.6 mph 1.2 mph 81 % 0.00 in
21:24 66.7 °F 60.7 °F 29.86 in SW 0.4 mph 3.5 mph 81 % 0.00 in
21:29 66.7 °F 60.7 °F 29.86 in Calm   2.3 mph 81 % 0.00 in
21:34 66.6 °F 60.6 °F 29.86 in Calm     81 % 0.00 in
21:39 66.6 °F 60.6 °F 29.86 in Calm     81 % 0.00 in
21:44 66.6 °F 60.6 °F 29.86 in Calm     81 % 0.00 in
21:49 66.5 °F 60.5 °F 29.86 in Calm     81 % 0.00 in
21:53 66.5 °F 60.5 °F 29.86 in Calm     81 % 0.00 in
21:58 66.4 °F 60.7 °F 29.86 in Calm   2.3 mph 82 % 0.00 in
22:03 66.3 °F 60.6 °F 29.86 in Calm     82 % 0.00 in
22:08 66.3 °F 60.6 °F 29.86 in WNW 0.3 mph 1.2 mph 82 % 0.00 in
22:13 66.2 °F 60.9 °F 29.86 in WSW 1.1 mph 2.3 mph 83 % 0.00 in
22:18 66.1 °F 60.8 °F 29.86 in WSW 2.0 mph 3.5 mph 83 % 0.00 in
22:23 66.1 °F 61.1 °F 29.86 in WSW 0.6 mph 2.3 mph 84 % 0.00 in
22:28 66.1 °F 61.1 °F 29.86 in Calm   1.2 mph 84 % 0.00 in
22:33 66.1 °F 61.1 °F 29.86 in WSW 1.3 mph 2.3 mph 84 % 0.00 in
22:38 66.1 °F 61.1 °F 29.86 in WSW 0.5 mph 1.2 mph 84 % 0.00 in
22:43 66.0 °F 61.0 °F 29.86 in WSW 0.6 mph 2.3 mph 84 % 0.00 in
22:48 66.0 °F 61.4 °F 29.86 in WSW 0.9 mph 3.5 mph 85 % 0.00 in
22:53 65.9 °F 61.3 °F 29.86 in WSW 1.0 mph 2.3 mph 85 % 0.00 in
22:58 65.9 °F 61.3 °F 29.86 in WSW 1.6 mph 2.3 mph 85 % 0.00 in
23:03 65.8 °F 61.2 °F 29.86 in WSW 1.7 mph 2.3 mph 85 % 0.00 in
23:08 65.8 °F 61.2 °F 29.86 in WSW 1.5 mph 3.5 mph 85 % 0.00 in
23:14 65.7 °F 61.1 °F 29.86 in WSW 1.7 mph 3.5 mph 85 % 0.00 in
23:19 65.6 °F 61.3 °F 29.86 in WSW 0.6 mph 2.3 mph 86 % 0.00 in
23:26 65.6 °F 61.3 °F 29.86 in West 1.0 mph 3.5 mph 86 % 0.00 in
23:31 65.6 °F 61.3 °F 29.85 in Calm   1.2 mph 86 % 0.00 in
23:36 65.5 °F 61.2 °F 29.86 in WSW 1.4 mph 3.0 mph 86 % 0.00 in
23:41 65.5 °F 61.2 °F 29.86 in WSW 1.6 mph 3.5 mph 86 % 0.00 in
23:46 65.5 °F 61.2 °F 29.86 in WSW 0.4 mph 1.2 mph 86 % 0.00 in
23:51 65.5 °F 61.2 °F 29.86 in WSW 1.4 mph 2.3 mph 86 % 0.00 in
23:56 65.4 °F 61.1 °F 29.86 in WSW 1.0 mph 2.3 mph 86 % 0.00 in
Crab Meadow Weather
Compliments of Weather Underground - 3 mb

Script developed by  Jim McMurry - jmcmurry@mwt.net Adapted for the template by  Wim van der Kuil - Leuven-Template.eu

Weather Terms: Dew Point - A measure of atmospheric moisture. It is the temperature to which air must be cooled in order to reach saturation (assuming pressure and moisture content are constant).